Patuxent River, MD

10:17 PM EDT on July 20, 2017 (GMT -0400)
Patuxent River Naval Air Station

Weather History for KNHK - November, 2012

Change the Weather History Date:

Saturday, November 17, 2012

  Actual Average Record
Temperature  
Mean Temperature 44 °F -  
Max Temperature 52 °F 57 °F 71 °F (1977)
Min Temperature 36 °F 40 °F 27 °F (1997)
Degree Days  
Heating Degree Days 21    
Moisture  
Dew Point 34 °F    
Average Humidity 65    
Maximum Humidity 89    
Minimum Humidity 52    
Precipitation  
Precipitation 0.00 in - - ()
Sea Level Pressure  
Sea Level Pressure 30.53 in    
Wind  
Wind Speed 9 mph (North)    
Max Wind Speed 15 mph    
Max Gust Speed -    
Visibility 10 miles    
Events      
Averages and records for this station are not official NWS values.
T = Trace of Precipitation, MM = Missing Value Source: NWS Daily Summary

Daily Weather History Graph

Daily Weather History Graph

Search for Another Location

Airport or City:

Trip Planner

Search our weather history database for the weather conditions in past years. The results will help you decide how hot, cold, wet, or windy it might be!

Date:

Astronomy

Nov. 17, 2012 Rise Set
Actual Time 6:49 AM EST 4:51 PM EST
Civil Twilight 6:21 AM EST 5:19 PM EST
Nautical Twilight 5:49 AM EST 5:51 PM EST
Astronomical Twilight 5:17 AM EST 6:23 PM EST
Moon 10:32 AM EST (11/17) 8:58 PM EST (11/17)
Length of Visible Light 10h 58m
Length of Day
10h 01m
Waxing Crescent, 20% of the Moon is Illuminated
Nov 17
Waxing Crescent
Nov 20
First Quarter
Nov 28
Full
Dec 6
Last Quarter
Dec 13
New

Hourly Weather History & Observations

Time (EST) Temp. Windchill Dew Point Humidity Pressure Visibility Wind Dir Wind Speed Gust Speed Precip Events Conditions
12:52 AM 36.0 °F 33.3 °F 30.9 °F 82% 30.43 in 10.0 mi WNW 3.5 mph - N/A   Clear
1:52 AM 36.0 °F - 33.1 °F 89% 30.44 in 9.0 mi Calm Calm - N/A   Clear
2:52 AM 43.0 °F 37.2 °F 30.9 °F 62% 30.45 in 10.0 mi North 10.4 mph - N/A   Clear
3:52 AM 43.0 °F 37.2 °F 30.9 °F 62% 30.46 in 10.0 mi North 10.4 mph - N/A   Clear
4:52 AM 42.1 °F 34.9 °F 28.0 °F 58% 30.48 in 10.0 mi North 13.8 mph - N/A   Clear
5:52 AM 42.1 °F 35.7 °F 27.0 °F 55% 30.49 in 10.0 mi North 11.5 mph - N/A   Clear
6:08 AM 42.8 °F 35.8 °F 28.4 °F 57% 30.49 in 10.0 mi North 13.8 mph - N/A   Clear
6:52 AM 42.1 °F 35.2 °F 28.0 °F 58% 30.51 in 10.0 mi North 12.7 mph - N/A   Clear
7:52 AM 43.0 °F 36.4 °F 28.9 °F 58% 30.53 in 10.0 mi North 12.7 mph - N/A   Clear
8:52 AM 45.0 °F 38.2 °F 30.0 °F 56% 30.55 in 10.0 mi North 15.0 mph - N/A   Clear
9:52 AM 46.0 °F 39.6 °F 30.9 °F 56% 30.57 in 10.0 mi North 15.0 mph - N/A   Partly Cloudy
10:52 AM 48.0 °F - 30.9 °F 52% 30.57 in 10.0 mi North 13.8 mph - N/A   Partly Cloudy
11:52 AM 48.9 °F - 33.1 °F 54% 30.56 in 10.0 mi North 10.4 mph - N/A   Partly Cloudy
12:52 PM 51.1 °F - 35.1 °F 54% 30.55 in 10.0 mi North 10.4 mph - N/A   Scattered Clouds
1:52 PM 51.1 °F - 36.0 °F 56% 30.54 in 10.0 mi North 9.2 mph - N/A   Scattered Clouds
2:52 PM 52.0 °F - 37.0 °F 57% 30.53 in 10.0 mi North 9.2 mph - N/A   Scattered Clouds
3:52 PM 51.1 °F - 37.9 °F 61% 30.55 in 10.0 mi North 11.5 mph - N/A   Mostly Cloudy
4:52 PM 50.0 °F - 37.9 °F 63% 30.56 in 10.0 mi NE 10.4 mph - N/A   Mostly Cloudy
5:52 PM 46.9 °F - 39.0 °F 74% 30.56 in 10.0 mi NNE 6.9 mph - N/A   Mostly Cloudy
6:52 PM 48.0 °F - 39.9 °F 74% 30.56 in 10.0 mi NNE 10.4 mph - N/A   Clear
7:52 PM 48.0 °F - 39.9 °F 74% 30.56 in 10.0 mi North 9.2 mph - N/A   Clear
8:52 PM 48.0 °F - 39.9 °F 74% 30.57 in 10.0 mi NE 13.8 mph - N/A   Clear
9:52 PM 46.9 °F - 39.9 °F 77% 30.57 in 10.0 mi NNE 12.7 mph - N/A   Clear
10:52 PM 46.9 °F - 39.9 °F 77% 30.56 in 10.0 mi NNE 12.7 mph - N/A   Clear
11:52 PM 46.9 °F - 39.9 °F 77% 30.56 in 10.0 mi NNE 13.8 mph - N/A   Clear